Zurück zum Katalog

FENGYUN 1C DEB

LostPO
NORAD 36172·DEBRIS·🇨🇳 China

Gestartet May 10, 1999 von Taiyuan Satellite Launch Center

Loading…

Nächste Überflüge (nächste 24 Stunden)

TLE

VeraltetSource: Space-Track

Epoche: Sep 11, 2022, 05:10 UTC

1 36172U 99025DSV 22254.21552431  .00001649  00000-0  12823-2 0  9990
2 36172  98.1478 252.4542 0216728 339.5641  19.6943 13.83250947735974

Verfolge FENGYUN 1C DEB in Echtzeit mit AllMySat

Download on the App Store